Regional Weather Roundup
Issued by NWS Albany, NY

Home | Current Version | Previous Version | Graphics & Text | Print | Product List | Glossary On
Versions: 1 2 3 4 5 6 7 8 9 10 11 12 13 14 15 16 17 18 19 20 21 22 23 24 25 26 27 28 29 30 31 32 33 34 35 36 37 38 39 40 41 42 43 44 45 46 47 48 49 50
000
ASUS41 KALY 101810
RWRALY

NEW YORK STATE HOURLY WEATHER ROUNDUP
NATIONAL WEATHER SERVICE ALBANY NY
100 PM EST WED FEB 10 2016

NOTE: "FAIR" INDICATES FEW OR NO CLOUDS BELOW 12,000 FEET WITH NO
SIGNIFICANT WEATHER AND/OR NO OBSTRUCTIONS TO VISIBILITY.

NYZ032-033-038>043-046>054-057>066-NYZ062>081-101900-
EAST


CITY           SKY/WX    TMP DP  RH WIND       PRES   REMARKS
ALBANY         PTSUNNY   37  21  52 W13       29.54F WCI  29
GLENS FALLS    PTSUNNY   36  22  56 SW10      29.51F WCI  28
POUGHKEEPSIE   PTSUNNY   40  20  44 W17       29.56F WCI  31
NEWBURGH       PTSUNNY   37  21  52 W17G29    29.57F WCI  28
MONTGOMERY     CLOUDY    38  20  48 W13G18    29.56F WCI  30
WHITE PLAINS   PTSUNNY   37  22  54 NW8       29.56F WCI  31
ISLIP          CLOUDY    37  26  64 W10       29.57S WCI  30
NEW YORK CITY  CLOUDY    39  24  55 SW13      29.60F WCI  31
CENTRAL PARK   CLOUDY    38  22  52 MISG      29.62F
$$

NYZ005>009-017-018-044>046-055-056-101900-
CENTRAL


CITY           SKY/WX    TMP DP  RH WIND       PRES   REMARKS
FULTON         LGT SNOW  31  23  72 W15G21    29.58S WCI  20
SYRACUSE       LGT SNOW  28  26  92 W15       29.58S VSB 3/4 WCI  16
ROME           LGT SNOW  30  26  85 W13G24    29.57F FOG     WCI  20
ELMIRA         CLOUDY    31  18  58 W10G23    29.60F WCI  22
BINGHAMTON     FLURRIES  27  20  75 W17G23    29.54F WCI  14
MONTICELLO     CLOUDY    30  19  64 W12G20    29.54F WCI  21
$$

NYZ026>034-041>043-101900-
NORTH


CITY           SKY/WX    TMP DP  RH WIND       PRES   REMARKS
WATERTOWN      LGT SNOW  25  21  85 W8        29.57R VSB 3/4 WCI  16
FORT DRUM      NOT AVBL
MASSENA        LGT SNOW  24  17  74 N6        29.54S WCI  17
SARANAC LAKE   LGT SNOW  30  24  78 SW14      29.38F WCI  19
PLATTSBURGH    CLOUDY    26  21  81 N9        29.49F WCI  17
$$

NYZ001>004-010>016-019>021-101900-
WEST


CITY           SKY/WX    TMP DP  RH WIND       PRES   REMARKS
NIAGARA FALLS  FLURRIES  27  19  72 W14       29.63F WCI  16
BUFFALO        FLURRIES  26  19  74 W16       29.64S WCI  14
DUNKIRK        LGT SNOW  25  18  74 W21G29    29.68F WCI  11
JAMESTOWN      CLOUDY    21  16  79 W12G17    29.62S WCI   9
WELLSVILLE     LGT SNOW  23  16  74 W14G25    29.58R WCI  11
ROCHESTER      FLURRIES  29  21  72 W16G26    29.61S WCI  17
PENN YAN       CLOUDY    30  16  56 W15G29    29.59S WCI  19
$$

             KEY
       WCI = WIND CHILL INDEX
       VSB = VISIBILITY
       HX  = HEAT INDEX
$$



USA.gov is the U.S. government's official web portal to all federal, state and local government web resources and services.